Regional Weather Roundup
Issued by NWS

Home | Current Version | Previous Version | Text Only | Print | Product List | Glossary Off
Versions: 1 2 3 4 5 6 7 8 9 10 11 12 13 14 15 16 17 18 19 20 21 22 23 24 25 26 27 28 29 30 31 32 33 34 35 36 37 38 39 40 41 42 43 44 45 46 47 48 49 50

000
ASUS45 KBOU 291310
RWRCO

WEATHER ROUNDUP FOR COLORADO
NATIONAL WEATHER SERVICE DENVER/BOULDER CO
700 AM MDT THU SEP 29 2016

NOTE: "FAIR" INDICATES FEW OR NO CLOUDS BELOW 12000 FEET WITH NO
SIGNIFICANT WEATHER AND/OR OBSTRUCTIONS TO VISIBILITY.

COZ001>005-013-030-031-291400-
...NORTHWEST COLORADO...

CITY           SKY/WX    TMP DP  RH WIND       PRES   REMARKS
CRAIG          MOCLDY    46  39  76 CALM      30.40R
HAYDEN         FAIR      48  30  49 E8        30.41R
MEEKER         CLOUDY    52  38  58 E6        30.41R
MOUNT WERNER   NOT AVBL
STEAMBOAT SPGS FAIR      41  32  70 CALM      30.44S
WALDEN           N/A     34  27  75 E6        30.52R WCI  29
$$

COZ006>008-011-291400-
...WEST CENTRAL VALLEYS...

CITY           SKY/WX    TMP DP  RH WIND       PRES   REMARKS
GRAND JUNCTION LGT RAIN  60  50  69 N12       30.34R
MONTROSE       MOCLDY    57  39  51 SE7       30.39S
EAGLE          CLEAR     43  30  61 CALM      30.47S
RIFLE          FAIR      53  44  71 W3        30.37R
DELTA          NOT AVBL
NUCLA          CLOUDY    57  43  58 CALM      30.43R
$$

COZ017>023-064>068-291400-
...SOUTHWEST COLORADO...

CITY           SKY/WX    TMP DP  RH WIND       PRES   REMARKS
DURANGO        CLOUDY    53  43  68 NW5       30.47R
CORTEZ         CLOUDY    55  52  89 CALM      30.41R
PAGOSA SPRINGS CLOUDY    51  32  48 CALM      30.53S
TELLURIDE      MOCLDY    53  35  51 CALM      30.57S
WOLF CREEK PAS CLOUDY    39  27  60 MISG      30.77R
$$

COZ009-010-012-014-032>034-037-058>063-291400-
...CENTRAL COLORADO...

CITY           SKY/WX    TMP DP  RH WIND       PRES   REMARKS
ASPEN          FAIR      46  32  58 SE5       30.48R
BUENA VISTA    FAIR      41  28  60 NW5       30.55S
COPPER MTN     FAIR      46  23  39 S14       30.74R
BERTHOUD PASS  FAIR      37  27  65 W10       30.77S
COTTONWOOD PAS MOCLDY    52  25  35 SE3       30.63S
GUNNISON       MOCLDY    37  28  70 E3        30.54R
KREMMLING      FAIR      34  30  86 CALM      30.52R
LEADVILLE      FAIR      36  24  62 S5        30.62S
MONARCH PASS   FAIR      39  25  56 SW13      30.85R
SALIDA         FAIR      44  28  54 NW6       30.61R
SUNLIGHT       FAIR      48  30  49 CALM      30.69R
WILKERSON PASS FAIR      41  23  48 SW9       30.72S
$$

COZ069>075-291400-
...SAN LUIS VALLEY/SANGRE DE CRISTO MOUNTAINS...

CITY           SKY/WX    TMP DP  RH WIND       PRES   REMARKS
ALAMOSA        FAIR      38  27  64 CALM      30.53R
LA VETA PASS   FAIR      45  23  42 MISG      30.65S
SAGUACHE       NOT AVBL
$$

COZ035-036-038>040-291400-
...NORTHERN COLORADO FRONT RANGE...

CITY           SKY/WX    TMP DP  RH WIND       PRES   REMARKS
DENVER INTL AP FAIR      51  35  54 W6        30.36R
DMNS CITY PARK   N/A     47  37  68 S1G9      30.35S
AURORA         PTCLDY    52  37  58 S9        30.37F
FRONT RANGE AP PTCLDY    55  37  50 S9        30.37
ERIE MUNI ARPT FAIR      41  37  83 CALM      30.36R
BOULDER MUN AP FAIR      50  34  53 SW5       30.35S
CENTENNIAL     FAIR      52  35  52 S8        30.37S
BROOMFIELD     PTCLDY    50  37  62 NW7       30.37S
FORT COLLINS   FAIR      45  39  81 N7        30.35S
LONGMONT       FAIR      45  37  76 CALM      30.37R
$$

COZ041-046-047-076>085-087-088-291400-
...PIKES PEAK/PALMER DIVIDE AND SOUTHERN FOOTHILLS...

CITY           SKY/WX    TMP DP  RH WIND       PRES   REMARKS
COLO. SPRINGS  FAIR      44  36  73 N3        30.45S
A. F. ACADEMY  FAIR      38  33  82 N5        30.45R
SCHRIEVER AFB  NOT AVBL
ELLICOTT       NOT AVBL
FALCON         FAIR      41  36  81 W3        30.47S
FORT CARSON    FAIR      50  38  62 CALM      30.42S
LIMON          FAIR      34  33  96 S3        30.42R
MONUMENT HILL  FAIR      45  36  70 S13       30.46S
TRINIDAD       FAIR      53  29  39 W12       30.42R
$$

COZ042>045-048>051-090-091-291400-
...NORTHEAST COLORADO...

CITY           SKY/WX    TMP DP  RH WIND       PRES   REMARKS
GREELEY ARPT   FAIR      43  36  75 CALM      30.35S
AKRON          FAIR      50  38  63 S10       30.37S
BURLINGTON     FAIR      47  37  68 S10       30.40S
WRAY           NOT AVBL
STERLING       FAIR      43  37  81 CALM      30.35S
HOLYOKE        FAIR      41  36  81 SE6       30.39S
FORT MORGAN    FAIR      48  39  72 SE6       30.37R
$$

COZ086-089-092>099-291400-
...SOUTHEAST COLORADO...

CITY           SKY/WX    TMP DP  RH WIND       PRES   REMARKS
PUEBLO         FAIR      48  38  68 N7        30.39R
LA JUNTA       FAIR      49  39  68 E8        30.37R
LAMAR          FAIR      43  38  82 E7        30.38R
SPRINGFIELD      N/A     45  41  86 S5        30.41S
$$



USA.gov is the U.S. government's official web portal to all federal, state and local government web resources and services.